Miscellaneous Local Product
Issued by NWS Hastings, NE

Home | Current Version | Previous Version | Text Only | Print | Product List | Glossary Off
Versions: 1 2 3 4 5 6 7 8 9 10 11 12 13 14 15 16 17 18 19 20 21 22 23 24 25 26 27 28 29 30 31 32 33 34 35 36 37 38 39 40 41 42 43 44 45 46 47 48 49 50

000
AXUS43 KGID 161202
MISGRI

GID CWA HOURLY WEATHER ROUNDUP
NATIONAL WEATHER SERVICE HASTINGS NE
700 AM CDT WED APR 16 2014

NOTE: "FAIR" INDICATES FEW OR NO CLOUDS BELOW 12,000 FEET WITH NO
SIGNIFICANT WEATHER AND/OR OBSTRUCTIONS TO VISIBILITY.

...SOUTH CENTRAL NEBRASKA...

CITY           SKY/WX    TMP DP  RH WIND       PRES   REMARKS
GRAND ISLAND   CLOUDY    47  22  37 S18       29.63R
HASTINGS       CLOUDY    45  21  38 S9        29.64R
ORD            MOCLDY    44  25  47 S9        29.57F
YORK           CLOUDY    45  23  42 S16G22    29.66S
AURORA         CLOUDY    46  23  39 S16G25    29.63S
LEXINGTON      PTCLDY    41  26  55 SE8       29.59F
HOLDREGE       PTCLDY    42  22  44 S10       29.61S
HEBRON         CLOUDY    47  20  34 S16G24    29.69F

...NEBRASKA PANHANDLE...

CITY           SKY/WX    TMP DP  RH WIND       PRES   REMARKS
CHADRON        LGT RAIN  40  37  89 NW21G26   29.74R WCI  30
ALLIANCE       LGT RAIN  38  35  89 NW26G35   29.72R WCI  26
SCOTTSBLUFF    MOCLDY    40  33  76 NW18      29.78R WCI  31
SIDNEY         PTCLDY    38  31  76 NW26G35   29.75R WCI  26

...WESTERN AND NORTH CENTRAL NEBRASKA...

CITY           SKY/WX    TMP DP  RH WIND       PRES   REMARKS
VALENTINE      CLOUDY    39  29  67 NW22G29   29.60R WCI  29
AINSWORTH      CLOUDY    46  31  55 NW17G24   29.55R
ONEILL         CLOUDY    48  24  39 S13G20    29.52F
BROKEN BOW     MOCLDY    42  25  50 S7        29.55F
IMPERIAL       PTCLDY    47  35  63 NW28G36   29.66R
NORTH PLATTE   PTCLDY    34  27  75 CALM      29.58R
MCCOOK         PTCLDY    41  28  60 W9        29.62R

...EASTERN NEBRASKA...

CITY           SKY/WX    TMP DP  RH WIND       PRES   REMARKS
NORFOLK        CLOUDY    46  23  40 S14       29.64F
SO SIOUX CITY  CLOUDY    48  27  44 S18       29.69R
TEKAMAH        CLOUDY    47  28  47 S18       29.72R
COLUMBUS       CLOUDY    46  21  36 S14G23    29.67R
ALBION         CLOUDY    43  26  51 S7        29.63F
OMAHA EPPLEY   CLOUDY    46  29  51 S26       29.75S
OFFUTT AFB     CLOUDY    44  31  59 SE13      29.76S
MILLARD        CLOUDY    46  28  48 SE14G20   29.74F
LINCOLN        CLOUDY    51  22  31 S26G33    29.69F
NEBRASKA CITY  CLOUDY    45  29  54 S20G26    29.78S
BEATRICE       CLOUDY    48  24  39 S18G28    29.72F
FALLS CITY     PTCLDY    46  28  49 S22G31    29.83R

...NORTHERN KANSAS...

CITY           SKY/WX    TMP DP  RH WIND       PRES   REMARKS
GOODLAND       MOCLDY    43  32  65 NW16      29.70R
HILL CITY      PTCLDY    44  16  32 SW12      29.64R
PHILLIPSBURG   CLEAR     45  16  31 SE7       29.65S
SMITH CENTER   CLEAR     45  16  31 S14       29.68S
BELOIT         CLEAR     48  19  32 S16       29.71R
HAYS           PTCLDY    46  18  31 S21G26    29.68R
RUSSELL        MOCLDY    46  19  34 S28G33    29.65S
CONCORDIA      MOCLDY    50  21  32 S36G47    29.67F
SALINA         CLEAR     49  22  34 S25G45    29.76S
TOPEKA         CLEAR     47  27  45 S15G23    29.89S



USA.gov is the U.S. government's official web portal to all federal, state and local government web resources and services.